Date String (YYYY-MM-DD hh:mm:ss) UTC,Instrument flags,absolute air pressure of the measurement (hPa),sample flow rate (lpm),inlet stack bypass flow (lpm),air temperature of the measurement (°C),ambient temperature measured by the external sensor (°C),aerosol sample conditioner tube jacket temperature (°C),OPC LED temperature (°C),internal box temperature (°C),relative humidity of the measurement (%),span deviation,mass concentration of particles derived from Lorenz-Mie calculation of OPC scattering (μg/m³),mass concentration of particles derived from Lorenz-Mie calculation of OPC scattering (μg/m³),mass concentration of particles derived from Lorenz-Mie calculation of OPC scattering (μg/m³)
DateTimeUTC,F1_M11,P_M11,Q1_M11,Q2_M11,T1_M11,T2_M11,T3_M11,T4_M11,T5_M11,U1_M11,ZSPAN_M11,X0_M11,X2_M11,X1_M11
2023-06-20 05:00:00,SystemResetWarning,0825.3,5.00,000.00,029.5,027.8,000.0,038.0,031.1,15.5,0000.0,0016.84,0004.13,0003.15
2023-06-20 05:01:00,SystemResetWarning,0825.3,5.00,000.00,029.5,028.0,000.0,038.0,031.2,15.4,0000.0,0016.95,0004.09,0003.13
2023-06-20 05:02:00,SystemResetWarning,0825.3,5.01,000.00,029.6,028.1,000.0,038.0,031.2,15.2,0000.0,0016.84,0004.02,0003.09
2023-06-20 05:03:00,SystemResetWarning,0825.3,4.98,000.00,029.6,027.1,000.0,038.0,031.2,14.7,0000.0,0016.10,0003.98,0003.05
2023-06-20 05:04:00,SystemResetWarning,0825.2,5.00,000.00,029.6,025.3,000.0,037.9,031.1,14.6,0000.0,0015.82,0003.92,0003.03
2023-06-20 05:05:00,SystemResetWarning,0825.2,5.02,000.00,029.5,025.1,000.0,037.9,031.1,14.6,0000.0,0017.55,0003.88,0003.00
2023-06-20 05:06:00,SystemResetWarning,0825.3,4.99,000.00,029.5,025.5,000.0,037.9,030.8,14.4,0000.0,0017.41,0003.81,0002.95
2023-06-20 05:07:00,SystemResetWarning,0825.3,4.99,000.00,029.4,025.9,000.0,037.9,030.8,14.5,0000.0,0017.71,0003.80,0002.90
2023-06-20 05:08:00,SystemResetWarning,0825.3,5.00,000.00,029.4,026.3,000.0,037.9,030.8,13.9,0000.0,0017.05,0003.79,0002.87
2023-06-20 05:09:00,SystemResetWarning,0825.3,5.01,000.00,029.4,026.7,000.0,037.9,030.9,13.6,0000.0,0015.88,0003.74,0002.84
2023-06-20 05:10:00,SystemResetWarning,0825.3,5.00,000.00,029.4,027.0,000.0,037.9,030.9,12.9,0000.0,0015.69,0003.69,0002.81
2023-06-20 05:11:00,SystemResetWarning,0825.3,5.00,000.00,029.4,027.3,000.0,038.0,031.0,12.4,0000.0,0016.63,0003.62,0002.78
2023-06-20 05:12:00,SystemResetWarning,0825.3,5.00,000.00,029.5,027.5,000.0,038.0,031.0,12.4,0000.0,0016.58,0003.55,0002.73
2023-06-20 05:13:00,SystemResetWarning,0825.3,5.00,000.00,029.5,027.7,000.0,038.0,031.1,13.2,0000.0,0015.55,0003.51,0002.69
2023-06-20 05:14:00,SystemResetWarning,0825.4,5.00,000.00,029.5,027.9,000.0,038.0,031.1,10.9,0000.0,0014.99,0003.44,0002.64
2023-06-20 05:15:00,SystemResetWarning,0825.3,4.98,000.00,029.6,028.1,000.0,038.0,031.2,12.8,0000.0,0014.43,0003.38,0002.59
2023-06-20 05:16:00,SystemResetWarning,0825.3,4.99,000.00,029.6,028.2,000.0,038.0,031.2,12.9,0000.0,0012.61,0003.32,0002.51
2023-06-20 05:17:00,SystemResetWarning,0825.3,5.00,000.00,029.6,028.3,000.0,038.1,031.3,12.3,0000.0,0012.20,0003.27,0002.47
2023-06-20 05:18:00,SystemResetWarning,0825.4,5.00,000.00,029.7,028.1,000.0,038.1,031.3,12.6,0000.0,0010.91,0003.19,0002.41
2023-06-20 05:19:00,SystemResetWarning,0825.3,4.99,000.00,029.7,026.0,000.0,038.0,031.2,13.6,0000.0,0009.74,0003.13,0002.37
2023-06-20 05:20:00,SystemResetWarning,0825.3,5.01,000.00,029.6,025.2,000.0,038.0,031.1,14.2,0000.0,0010.27,0003.05,0002.34
2023-06-20 05:21:00,SystemResetWarning,0825.3,5.01,000.00,029.6,025.4,000.0,038.0,030.9,13.5,0000.0,0010.01,0003.04,0002.32
2023-06-20 05:22:00,SystemResetWarning,0825.3,5.00,000.00,029.5,025.8,000.0,038.0,030.8,14.2,0000.0,0009.44,0003.01,0002.30
2023-06-20 05:23:00,SystemResetWarning,0825.3,4.99,000.00,029.5,026.2,000.0,038.0,030.9,14.9,0000.0,0009.59,0002.99,0002.31
2023-06-20 05:24:00,SystemResetWarning,0825.4,4.99,000.00,029.5,026.6,000.0,038.0,030.9,15.2,0000.0,0009.72,0002.98,0002.34
2023-06-20 05:25:00,SystemResetWarning,0825.4,5.02,000.00,029.5,026.9,000.0,038.0,030.9,15.7,0000.0,0009.93,0003.04,0002.37
2023-06-20 05:26:00,SystemResetWarning,0825.4,4.99,000.00,029.5,027.2,000.0,038.0,031.0,15.0,0000.0,0009.71,0003.10,0002.41
2023-06-20 05:27:00,SystemResetWarning,0825.5,4.99,000.00,029.5,027.5,000.0,038.0,031.1,14.1,0000.0,0009.63,0003.17,0002.49
2023-06-20 05:28:00,SystemResetWarning,0825.6,4.99,000.00,029.5,027.7,000.0,038.0,031.1,14.7,0000.0,0009.29,0003.20,0002.52
2023-06-20 05:29:00,SystemResetWarning,0825.6,5.00,000.00,029.6,027.9,000.0,038.0,031.2,14.8,0000.0,0009.07,0003.24,0002.55
2023-06-20 05:30:00,SystemResetWarning,0825.6,5.01,000.00,029.6,028.0,000.0,038.1,031.2,15.2,0000.0,0009.16,0003.28,0002.59
2023-06-20 05:31:00,SystemResetWarning,0825.7,5.00,000.00,029.6,028.1,000.0,038.1,031.3,14.8,0000.0,0008.85,0003.33,0002.64
2023-06-20 05:32:00,SystemResetWarning,0825.7,5.00,000.00,029.7,028.2,000.0,038.1,031.3,14.6,0000.0,0009.11,0003.35,0002.68
2023-06-20 05:33:00,SystemResetWarning,0825.6,4.99,000.00,029.7,028.3,000.0,038.1,031.3,14.3,0000.0,0008.53,0003.36,0002.70
2023-06-20 05:34:00,SystemResetWarning,0825.7,5.00,000.00,029.7,028.1,000.0,038.1,031.4,14.0,0000.0,0008.05,0003.38,0002.69
2023-06-20 05:35:00,SystemResetWarning,0825.6,4.98,000.00,029.7,026.0,000.0,038.1,031.3,13.2,0000.0,0007.89,0003.37,0002.68
2023-06-20 05:36:00,SystemResetWarning,0825.6,5.02,000.00,029.7,025.1,000.0,038.0,031.3,13.6,0000.0,0007.50,0003.35,0002.66
2023-06-20 05:37:00,SystemResetWarning,0825.6,5.00,000.00,029.6,025.4,000.0,038.0,031.0,13.9,0000.0,0007.99,0003.31,0002.64
2023-06-20 05:38:00,SystemResetWarning,0825.5,5.00,000.00,029.5,025.7,000.0,038.0,030.8,14.2,0000.0,0008.14,0003.30,0002.62
2023-06-20 05:39:00,SystemResetWarning,0825.6,5.00,000.00,029.5,026.2,000.0,038.0,030.9,14.0,0000.0,0008.42,0003.28,0002.62
2023-06-20 05:40:00,SystemResetWarning,0825.6,4.99,000.00,029.5,026.6,000.0,038.0,030.9,13.7,0000.0,0008.98,0003.28,0002.64
2023-06-20 05:41:00,SystemResetWarning,0825.6,4.99,000.00,029.5,026.9,000.0,038.1,031.0,14.1,0000.0,0009.79,0003.27,0002.63
2023-06-20 05:42:00,SystemResetWarning,0825.6,5.00,000.00,029.5,027.2,000.0,038.1,031.0,14.5,0000.0,0010.06,0003.25,0002.60
2023-06-20 05:43:00,SystemResetWarning,0825.6,5.01,000.00,029.6,027.5,000.0,038.1,031.1,14.9,0000.0,0009.87,0003.25,0002.58
2023-06-20 05:44:00,SystemResetWarning,0825.6,4.99,000.00,029.6,027.7,000.0,038.1,031.1,14.8,0000.0,0009.73,0003.28,0002.58
2023-06-20 05:45:00,SystemResetWarning,0825.6,5.00,000.00,029.6,027.9,000.0,038.1,031.2,15.3,0000.0,0009.60,0003.29,0002.59
2023-06-20 05:46:00,SystemResetWarning,0825.6,5.00,000.00,029.6,028.0,000.0,038.1,031.2,15.1,0000.0,0009.95,0003.29,0002.59
2023-06-20 05:47:00,SystemResetWarning,0825.6,5.00,000.00,029.7,028.1,000.0,038.1,031.3,14.2,0000.0,0010.13,0003.31,0002.61
2023-06-20 05:48:00,SystemResetWarning,0825.6,4.99,000.00,029.7,028.2,000.0,038.1,031.3,14.8,0000.0,0009.60,0003.35,0002.63
2023-06-20 05:49:00,SystemResetWarning,0825.6,5.00,000.00,029.7,028.3,000.0,038.2,031.4,14.1,0000.0,0009.41,0003.34,0002.63
2023-06-20 05:50:00,SystemResetWarning,0825.7,4.99,000.00,029.8,027.1,000.0,038.1,031.4,14.1,0000.0,0009.10,0003.34,0002.62
2023-06-20 05:51:00,SystemResetWarning,0825.6,5.00,000.00,029.7,025.2,000.0,038.1,031.2,14.4,0000.0,0008.58,0003.36,0002.62
2023-06-20 05:52:00,SystemResetWarning,0825.6,5.01,000.00,029.7,025.2,000.0,038.0,031.1,14.3,0000.0,0007.89,0003.36,0002.62
2023-06-20 05:53:00,SystemResetWarning,0825.5,5.01,000.00,029.6,025.5,000.0,038.0,030.9,14.6,0000.0,0007.35,0003.35,0002.64
2023-06-20 05:54:00,SystemResetWarning,0825.6,5.00,000.00,029.5,025.9,000.0,038.1,030.8,14.2,0000.0,0007.26,0003.36,0002.65
2023-06-20 05:55:00,SystemResetWarning,0825.6,5.01,000.00,029.5,026.3,000.0,038.1,030.8,13.9,0000.0,0007.36,0003.33,0002.66
2023-06-20 05:56:00,SystemResetWarning,0825.6,5.00,000.00,029.5,026.7,000.0,038.1,030.9,13.9,0000.0,0007.36,0003.32,0002.65
2023-06-20 05:57:00,SystemResetWarning,0825.6,5.00,000.00,029.5,027.0,000.0,038.1,031.0,13.8,0000.0,0007.05,0003.35,0002.65
2023-06-20 05:58:00,SystemResetWarning,0825.6,5.00,000.00,029.5,027.3,000.0,038.1,031.0,13.8,0000.0,0006.91,0003.36,0002.64
2023-06-20 05:59:00,SystemResetWarning,0825.6,5.00,000.00,029.6,027.5,000.0,038.1,031.1,14.1,0000.0,0006.78,0003.35,0002.63
